Richmond, VA

6:17 AM EDT on July 22, 2017 (GMT -0400)
Richmond International

Weather History for KRIC - October, 2013

Change the Weather History Date:

Saturday, October 12, 2013

  Actual Average Record
Temperature  
Mean Temperature 66 °F 61 °F  
Max Temperature 68 °F 72 °F 87 °F (1954)
Min Temperature 63 °F 50 °F 29 °F (1964)
Degree Days  
Heating Degree Days 0 6  
Month to date heating degree days 21 51  
Since 1 July heating degree days 34 80  
Cooling Degree Days 1 1  
Month to date cooling degree days 64 25  
Year to date cooling degree days 1663 1529  
Growing Degree Days 16 (Base 50)    
Moisture  
Dew Point 63 °F    
Average Humidity 90    
Maximum Humidity 93    
Minimum Humidity 87    
Precipitation  
Precipitation 0.08 in 0.09 in 1.27 in (1911)
Month to date precipitation 3.94 1.17  
Year to date precipitation 44.20 35.29  
Snow  
Snow 0.00 in 0.00 in 0.00 in (2002)
Month to date snowfall 0.0 0.0  
Since 1 July snowfall 0.0 0.0  
Snow Depth 0.00 in    
Sea Level Pressure  
Sea Level Pressure 30.02 in    
Wind  
Wind Speed 10 mph (North)    
Max Wind Speed 16 mph    
Max Gust Speed 21 mph    
Visibility 4 miles    
Events Rain    
T = Trace of Precipitation, MM = Missing Value Source: NWS Daily Summary

Daily Weather History Graph

Daily Weather History Graph

Search for Another Location

Airport or City:

Trip Planner

Search our weather history database for the weather conditions in past years. The results will help you decide how hot, cold, wet, or windy it might be!

Date:

Astronomy

Oct. 12, 2013 Rise Set
Actual Time 7:14 AM EDT 6:35 PM EDT
Civil Twilight 6:48 AM EDT 7:02 PM EDT
Nautical Twilight 6:18 AM EDT 7:32 PM EDT
Astronomical Twilight 5:47 AM EDT 8:02 PM EDT
Moon 2:37 PM EDT (10/12) 12:23 AM EDT (10/12)
Length of Visible Light 12h 13m
Length of Day
11h 21m
First Quarter, 58% of the Moon is Illuminated
Oct 12
First Quarter
Oct 18
Full
Oct 26
Last Quarter
Nov 3
New
Nov 10
First Quarter

Hourly Weather History & Observations

Time (EDT) Temp. Dew Point Humidity Pressure Visibility Wind Dir Wind Speed Gust Speed Precip Events Conditions
12:54 AM 63.0 °F 61.0 °F 93% 29.95 in 6.0 mi NNW 8.1 mph - 0.00 in   Overcast
1:29 AM 64.4 °F 60.8 °F 88% 29.93 in 2.5 mi NNW 8.1 mph - N/A   Overcast
1:54 AM 64.0 °F 62.1 °F 93% 29.94 in 2.5 mi North 8.1 mph - N/A   Overcast
2:14 AM 64.4 °F 62.6 °F 94% 29.93 in 3.0 mi NNW 5.8 mph - 0.00 in   Overcast
2:54 AM 64.0 °F 62.1 °F 93% 29.95 in 6.0 mi North 5.8 mph - 0.01 in   Overcast
3:54 AM 64.9 °F 63.0 °F 93% 29.94 in 6.0 mi North 6.9 mph - N/A   Overcast
4:54 AM 66.0 °F 64.0 °F 93% 29.96 in 9.0 mi NNE 9.2 mph - N/A   Overcast
5:54 AM 66.0 °F 63.0 °F 90% 29.98 in 5.0 mi North 8.1 mph - 0.00 in   Light Drizzle
6:31 AM 66.2 °F 62.6 °F 88% 29.97 in 2.5 mi North 9.2 mph - 0.01 in   Light Drizzle
6:54 AM 64.9 °F 63.0 °F 93% 29.99 in 6.0 mi North 8.1 mph - 0.02 in Rain Light Rain
7:54 AM 64.9 °F 63.0 °F 93% 30.00 in 2.0 mi North 9.2 mph - 0.00 in   Light Drizzle
8:54 AM 64.9 °F 63.0 °F 93% 30.02 in 2.0 mi North 9.2 mph - 0.00 in   Light Drizzle
9:54 AM 66.0 °F 63.0 °F 90% 30.03 in 4.0 mi NNE 9.2 mph - 0.00 in   Light Drizzle
10:19 AM 66.2 °F 62.6 °F 88% 30.02 in 2.5 mi NNE 10.4 mph - 0.01 in Rain Light Rain
10:39 AM 66.2 °F 62.6 °F 88% 30.02 in 10.0 mi NNE 11.5 mph - 0.01 in   Overcast
10:54 AM 66.9 °F 63.0 °F 87% 30.04 in 10.0 mi NNE 10.4 mph - 0.01 in   Overcast
11:35 AM 66.2 °F 64.4 °F 94% 30.03 in 2.5 mi NNE 8.1 mph - 0.00 in   Light Drizzle
11:54 AM 68.0 °F 64.0 °F 87% 30.04 in 2.0 mi North 9.2 mph - 0.00 in   Light Drizzle
12:07 PM 66.2 °F 64.4 °F 94% 30.03 in 1.5 mi North 9.2 mph - 0.00 in   Light Drizzle
12:27 PM 66.2 °F 64.4 °F 94% 30.03 in 2.0 mi NNE 9.2 mph - 0.01 in Rain Light Rain
12:34 PM 66.2 °F 64.4 °F 94% 30.03 in 1.5 mi North 8.1 mph - 0.01 in Rain Light Rain
12:54 PM 68.0 °F 64.0 °F 87% 30.04 in 2.0 mi North 10.4 mph - 0.01 in   Light Drizzle
1:00 PM 68.0 °F 64.4 °F 88% 30.02 in 1.2 mi North 9.2 mph - 0.01 in   Light Drizzle
1:44 PM 68.0 °F 64.4 °F 88% 30.02 in 5.0 mi North 10.4 mph - 0.02 in   Light Drizzle
1:54 PM 68.0 °F 64.0 °F 87% 30.03 in 9.0 mi NNE 13.8 mph - 0.02 in   Overcast
2:54 PM 68.0 °F 64.0 °F 87% 30.03 in 6.0 mi North 12.7 mph - 0.00 in   Light Drizzle
3:54 PM 66.9 °F 63.0 °F 87% 30.04 in 10.0 mi NNE 13.8 mph - 0.00 in   Overcast
4:54 PM 66.9 °F 63.0 °F 87% 30.06 in 7.0 mi NNE 12.7 mph - N/A   Overcast
5:54 PM 66.9 °F 62.1 °F 84% 30.07 in 10.0 mi NNE 15.0 mph - N/A   Overcast
6:54 PM 66.0 °F 63.0 °F 90% 30.08 in 6.0 mi NNE 9.2 mph - N/A   Overcast
7:54 PM 64.9 °F 62.1 °F 90% 30.10 in 4.0 mi North 9.2 mph - N/A   Overcast
8:54 PM 64.9 °F 62.1 °F 90% 30.11 in 3.0 mi North 11.5 mph - 0.01 in   Light Drizzle
9:54 PM 64.0 °F 61.0 °F 90% 30.12 in 3.0 mi North 9.2 mph - 0.00 in   Light Drizzle
10:54 PM 64.0 °F 61.0 °F 90% 30.12 in 2.0 mi North 8.1 mph - 0.00 in   Light Drizzle
11:54 PM 64.0 °F 61.0 °F 90% 30.12 in 3.0 mi North 6.9 mph - 0.00 in   Light Drizzle